Weather History for KFIG - May, 2013

Change the Weather History Date:

Thursday, May 9, 2013

  Actual Average (KDUJ) Record (KDUJ)
Temperature  
Mean Temperature 58 °F 54 °F  
Max Temperature 66 °F 66 °F 89 °F (1979)
Min Temperature 51 °F 43 °F 26 °F (1966)
Degree Days  
Heating Degree Days 6 11  
Month to date heating degree days 107  
Since 1 July heating degree days 6620  
Cooling Degree Days 0 0  
Month to date cooling degree days 0  
Year to date cooling degree days 4  
Growing Degree Days 8 (Base 50)    
Moisture  
Dew Point 54 °F    
Average Humidity 89    
Maximum Humidity 100    
Minimum Humidity 62    
Precipitation  
Precipitation 0.37 in 0.14 in 1.81 in (2002)
Month to date precipitation 1.14  
Sea Level Pressure  
Sea Level Pressure 29.95 in    
Wind  
Wind Speed 3 mph (West)    
Max Wind Speed 10 mph    
Max Gust Speed 20 mph    
Visibility 7 miles    
Events Rain , Thunderstorm    
T = Trace of Precipitation, MM = Missing Value Source: NWS Daily Summary

Daily Weather History Graph

Daily Weather History Graph

Search for Another Location

Airport or City:

Trip Planner

Search our weather history database for the weather conditions in past years. The results will help you decide how hot, cold, wet, or windy it might be!

Date:

Astronomy

May. 09, 2013 Rise Set
Actual Time 6:01 AM EDT 8:19 PM EDT
Civil Twilight 5:31 AM EDT 8:49 PM EDT
Nautical Twilight 4:53 AM EDT 9:27 PM EDT
Astronomical Twilight 4:11 AM EDT 10:09 PM EDT
Moon 5:45 AM EDT (5/9) 8:12 PM EDT (5/9)
Length of Visible Light 15h 18m
Length of Day
14h 17m
Waning Crescent, 0% of the Moon is Illuminated
May 9
Waning Crescent
May 9
New
May 18
First Quarter
May 25
Full
May 31
Last Quarter

Hourly Weather History & Observations

Time (EDT) Temp. Dew Point Humidity Pressure Visibility Wind Dir Wind Speed Gust Speed Precip Events Conditions
12:54 AM 53.1 °F 51.1 °F 93% 29.94 in 10.0 mi North 4.6 mph - N/A   Overcast
1:54 AM 53.1 °F 51.1 °F 93% 29.92 in 10.0 mi East 3.5 mph - 0.01 in Rain Light Rain
2:54 AM 53.1 °F 52.0 °F 96% 29.92 in 4.0 mi Calm Calm - 0.03 in Rain Light Rain
3:27 AM 53.6 °F 51.8 °F 94% 29.92 in 10.0 mi Calm Calm - 0.00 in   Overcast
3:41 AM 53.6 °F 51.8 °F 94% 29.91 in 10.0 mi Calm Calm - 0.00 in   Overcast
3:52 AM 53.6 °F 51.8 °F 94% 29.91 in 9.0 mi Calm Calm - 0.00 in   Overcast
3:54 AM 53.1 °F 52.0 °F 96% 29.91 in 8.0 mi Calm Calm - 0.00 in   Overcast
4:01 AM 51.8 °F 51.8 °F 100% 29.91 in 7.0 mi Calm Calm - N/A   Overcast
4:54 AM 53.1 °F 52.0 °F 96% 29.91 in 10.0 mi Calm Calm - 0.00 in   Overcast
5:35 AM 53.6 °F 51.8 °F 94% 29.91 in 5.0 mi Calm Calm - 0.01 in Rain Light Rain
5:54 AM 53.1 °F 52.0 °F 96% 29.90 in 5.0 mi Calm Calm - 0.01 in Rain Light Rain
6:03 AM 53.6 °F 51.8 °F 94% 29.91 in 4.0 mi Calm Calm - 0.00 in Rain Light Rain
6:18 AM 53.6 °F 51.8 °F 94% 29.92 in 2.0 mi Calm Calm - 0.00 in   Overcast
6:36 AM 53.6 °F 51.8 °F 94% 29.92 in 1.5 mi Calm Calm - 0.00 in   Overcast
6:47 AM 53.6 °F 51.8 °F 94% 29.93 in 2.5 mi Calm Calm - 0.00 in   Overcast
6:54 AM 53.1 °F 52.0 °F 96% 29.93 in 2.5 mi Calm Calm - 0.00 in   Overcast
7:14 AM 53.6 °F 51.8 °F 94% 29.93 in 4.0 mi Calm Calm - N/A   Overcast
7:42 AM 53.6 °F 51.8 °F 94% 29.94 in 5.0 mi Calm Calm - 0.00 in   Overcast
7:54 AM 53.1 °F 52.0 °F 96% 29.94 in 4.0 mi Calm Calm - 0.00 in Rain Light Rain
8:04 AM 53.6 °F 51.8 °F 94% 29.94 in 2.5 mi SSW 4.6 mph - 0.00 in Rain Light Rain
8:12 AM 53.6 °F 51.8 °F 94% 29.95 in 4.0 mi SSW 3.5 mph - 0.00 in   Overcast
8:54 AM 53.1 °F 52.0 °F 96% 29.96 in 4.0 mi SW 3.5 mph - 0.01 in Rain Light Rain
9:10 AM 53.6 °F 53.6 °F 100% 29.96 in 5.0 mi SSW 3.5 mph - 0.00 in   Overcast
9:20 AM 55.4 °F 53.6 °F 94% 29.96 in 4.0 mi SW 4.6 mph - 0.00 in   Overcast
9:42 AM 55.4 °F 53.6 °F 94% 29.96 in 5.0 mi SSW 3.5 mph - 0.00 in Rain Light Rain
9:54 AM 55.0 °F 53.1 °F 93% 29.96 in 7.0 mi SSW 3.5 mph - 0.00 in   Overcast
10:16 AM 55.4 °F 53.6 °F 94% 29.97 in 1.8 mi SSW 5.8 mph - 0.02 in Rain Rain
10:26 AM 55.4 °F 53.6 °F 94% 29.97 in 3.0 mi SW 5.8 mph - 0.02 in Rain Light Rain
10:37 AM 55.4 °F 55.4 °F 100% 29.96 in 6.0 mi SW 5.8 mph - 0.02 in   Overcast
10:51 AM 57.2 °F 55.4 °F 94% 29.97 in 7.0 mi SSW 5.8 mph - 0.02 in   Overcast
10:54 AM 55.9 °F 55.0 °F 97% 29.97 in 7.0 mi SW 5.8 mph - 0.02 in   Overcast
11:08 AM 57.2 °F 55.4 °F 94% 29.97 in 10.0 mi Calm Calm - N/A   Overcast
11:54 AM 62.1 °F 55.9 °F 80% 29.96 in 10.0 mi WNW 5.8 mph - N/A   Overcast
12:03 PM 62.6 °F 55.4 °F 77% 29.96 in 10.0 mi Variable 3.5 mph - N/A   Overcast
1:27 PM 60.8 °F 55.4 °F 82% 29.96 in 2.5 mi WNW 10.4 mph 19.6 mph 0.03 in Rain Rain
1:35 PM 60.8 °F 57.2 °F 88% 29.96 in 6.0 mi WNW 5.8 mph - 0.04 in Rain Light Rain
1:54 PM 64.0 °F 57.0 °F 78% 29.95 in 10.0 mi Variable 4.6 mph - 0.04 in   Overcast
2:01 PM 64.4 °F 57.2 °F 77% 29.95 in 10.0 mi NNW 6.9 mph - N/A   Overcast
2:19 PM 66.2 °F 57.2 °F 73% 29.95 in 10.0 mi Variable 6.9 mph - N/A   Scattered Clouds
2:54 PM 62.1 °F 55.9 °F 80% 29.95 in 3.0 mi NNW 6.9 mph - 0.03 in Rain Heavy Rain
3:54 PM 62.1 °F 57.9 °F 86% 29.95 in 7.0 mi WNW 5.8 mph - 0.05 in Rain Light Rain
4:13 PM 64.4 °F 57.2 °F 77% 29.95 in 10.0 mi WNW 4.6 mph - 0.00 in Thunderstorm Mostly Cloudy
4:34 PM 60.8 °F 57.2 °F 88% 29.95 in 1.5 mi NW 5.8 mph - 0.14 in Rain Heavy Rain
4:38 PM 62.6 °F 57.2 °F 82% 29.95 in 3.0 mi NW 6.9 mph - 0.14 in Rain Light Rain
4:52 PM 62.6 °F 57.2 °F 82% 29.96 in 10.0 mi NNW 3.5 mph - 0.14 in Thunderstorm Mostly Cloudy
4:54 PM 63.0 °F 57.0 °F 81% 29.95 in 10.0 mi North 3.5 mph - 0.14 in Thunderstorm Mostly Cloudy
5:07 PM 62.6 °F 57.2 °F 82% 29.96 in 3.0 mi Calm Calm - 0.02 in Rain Rain
5:22 PM 64.4 °F 57.2 °F 77% 29.96 in 2.5 mi Calm Calm - 0.02 in   Haze
5:32 PM 66.2 °F 60.8 °F 83% 29.96 in 10.0 mi Calm Calm - 0.02 in   Mostly Cloudy
5:54 PM 64.0 °F 57.0 °F 78% 29.95 in 10.0 mi Calm Calm - 0.02 in   Overcast
6:54 PM 64.9 °F 60.1 °F 84% 29.95 in 10.0 mi Calm Calm - N/A   Clear
7:54 PM 64.0 °F 51.1 °F 63% 29.96 in 10.0 mi NW 3.5 mph - N/A   Clear
8:54 PM 62.1 °F 48.9 °F 62% 30.00 in 10.0 mi Calm Calm - N/A   Clear
9:54 PM 57.0 °F 54.0 °F 89% 30.02 in 10.0 mi Calm Calm - N/A   Clear
10:54 PM 52.0 °F 51.1 °F 97% 30.02 in 10.0 mi NNW 6.9 mph - N/A   Clear
11:54 PM 51.1 °F 48.0 °F 89% 30.01 in 10.0 mi Variable 3.5 mph - 0.01 in   Clear